Weather History for Phuket, Thailand

Change the Weather History Date:

Wednesday, December 26, 2012

  Actual Average Record
Temperature  
Mean Temperature 82 °F -  
Max Temperature 91 °F 89 °F 95 °F (2002)
Min Temperature 73 °F 74 °F 69 °F (1996)
Cooling Degree Days 17    
Growing Degree Days 32 (Base 50)    
Moisture  
Dew Point 72 °F    
Average Humidity 72    
Maximum Humidity 94    
Minimum Humidity 53    
Precipitation  
Precipitation 0.47 in 0.06 in - ()
Sea Level Pressure  
Sea Level Pressure 29.76 in    
Wind  
Wind Speed 7 mph ()    
Max Wind Speed 20 mph    
Max Gust Speed -    
Visibility 5.3 miles    
Events Rain , Thunderstorm    
Averages and records for this station are not official NWS values.
T = Trace of Precipitation, MM = Missing Value Source: Averaged Metar Reports

Daily Weather History Graph

Daily Weather History Graph

Search for Another Location

Airport:

Trip Planner

Search our weather history database for the weather conditions in past years. The results will help you decide how hot, cold, wet, or windy it might be!

Date:

Astronomy

Dec. 26, 2012 Rise Set
Actual Time 6:37 AM ICT 6:17 PM ICT
Civil Twilight 6:15 AM ICT 6:39 PM ICT
Nautical Twilight 5:48 AM ICT 7:06 PM ICT
Astronomical Twilight 5:22 AM ICT 7:32 PM ICT
Moon 4:40 PM ICT (12/26) 4:41 AM ICT (12/26)
Length of Visible Light 12h 24m
Length of Day
11h 39m
Waxing Gibbous, 96% of the Moon is Illuminated
Dec 26
Waxing Gibbous
Dec 28
Full
Jan 5
Last Quarter
Jan 12
New
Jan 19
First Quarter

Hourly Weather History & Observations

Time (ICT) Temp. Heat Index Dew Point Humidity Pressure Visibility Wind Dir Wind Speed Gust Speed Precip Events Conditions
12:00 AM 77.0 °F - 71.6 °F 83% 29.83 in 5.0 mi ENE 6.9 mph - N/A   Mostly Cloudy
12:30 AM 78.8 °F - 71.6 °F 78% 29.83 in 5.0 mi East 5.8 mph - N/A   Mostly Cloudy
1:00 AM 78 °F - 74 °F 84% 29.80 in 5 mi Calm Calm - -   Mist
1:00 AM 77.0 °F - 71.6 °F 83% 29.83 in 5.0 mi Calm Calm - N/A   Mostly Cloudy
3:30 AM 78.8 °F - 69.8 °F 74% 29.77 in 5.0 mi ENE 5.8 mph - N/A   Mostly Cloudy
4:00 AM 78.8 °F - 69.8 °F 74% 29.77 in 5.0 mi ENE 5.8 mph - N/A   Mostly Cloudy
5:00 AM 78.8 °F - 71.6 °F 78% 29.74 in 5.0 mi East 6.9 mph - N/A   Mostly Cloudy
6:00 AM 78.8 °F - 71.6 °F 78% 29.74 in 5.0 mi ENE 9.2 mph - N/A   Mostly Cloudy
6:30 AM 78.8 °F - 71.6 °F 78% 29.74 in 5.0 mi ENE 9.2 mph - N/A   Mostly Cloudy
7:00 AM 78 °F - 72 °F 78% 29.74 in 6 mi ENE 5.8 mph - -   Scattered Clouds
7:00 AM 78.8 °F - 71.6 °F 78% 29.74 in 5.6 mi ENE 8.1 mph - N/A   Mostly Cloudy
7:30 AM 78.8 °F - 71.6 °F 78% 29.77 in 5.6 mi ENE 9.2 mph - N/A   Mostly Cloudy
8:00 AM 80.6 °F 84.6 °F 71.6 °F 74% 29.80 in 6.2 mi ENE 11.5 mph - N/A   Mostly Cloudy
8:30 AM 80.6 °F 84.6 °F 71.6 °F 74% 29.80 in 6.2 mi ENE 11.5 mph - N/A   Mostly Cloudy
9:00 AM 84.2 °F 89.6 °F 71.6 °F 66% 29.80 in 6.2 mi East 11.5 mph - N/A   Mostly Cloudy
9:30 AM 84.2 °F 89.6 °F 71.6 °F 66% 29.80 in 6.2 mi East 16.1 mph - N/A   Mostly Cloudy
10:00 AM 84.2 °F 89.6 °F 71.6 °F 66% 29.80 in 6.2 mi East 11.5 mph - N/A   Scattered Clouds
10:30 AM 84.2 °F 89.6 °F 71.6 °F 66% 29.80 in 6.2 mi East 19.6 mph - N/A   Scattered Clouds
11:00 AM 86.0 °F 91.8 °F 71.6 °F 62% 29.77 in 6.2 mi East 13.8 mph - N/A   Scattered Clouds
11:30 AM 86.0 °F 91.8 °F 71.6 °F 62% 29.77 in 6.2 mi East 19.6 mph - N/A   Scattered Clouds
12:00 PM 86.0 °F 91.8 °F 71.6 °F 62% 29.74 in 6.2 mi East 13.8 mph - N/A   Scattered Clouds
12:30 PM 87.8 °F 93.8 °F 71.6 °F 58% 29.74 in 6.2 mi ENE 13.8 mph - N/A   Scattered Clouds
1:00 PM 89 °F - 74 °F 53% 29.73 in 6 mi East 13.8 mph - -   Scattered Clouds
1:00 PM 87.8 °F 93.8 °F 71.6 °F 58% 29.74 in 6.2 mi ENE 11.5 mph - N/A   Scattered Clouds
1:30 PM 87.8 °F 93.8 °F 71.6 °F 58% 29.71 in 6.2 mi East 16.1 mph - N/A   Mostly Cloudy
2:00 PM 87.8 °F 93.8 °F 71.6 °F 58% 29.71 in 6.2 mi East 11.5 mph - N/A   Mostly Cloudy
2:30 PM 87.8 °F 93.8 °F 71.6 °F 58% 29.68 in 6.2 mi East 12.7 mph - N/A   Mostly Cloudy
3:00 PM 87.8 °F 93.8 °F 71.6 °F 58% 29.68 in 6.2 mi ENE 6.9 mph - N/A   Mostly Cloudy
3:30 PM 87.8 °F 93.8 °F 71.6 °F 58% 29.68 in 6.2 mi East 12.7 mph - N/A   Mostly Cloudy
4:00 PM 87.8 °F 95.6 °F 73.4 °F 62% 29.68 in 6.2 mi East 11.5 mph - N/A   Mostly Cloudy
4:30 PM 87.8 °F 93.8 °F 71.6 °F 58% 29.68 in 6.2 mi ENE 6.9 mph - N/A   Mostly Cloudy
5:00 PM 86.0 °F 91.8 °F 71.6 °F 62% 29.68 in 6.2 mi East 5.8 mph - N/A   Mostly Cloudy
5:30 PM 86.0 °F 91.8 °F 71.6 °F 62% 29.71 in 5.6 mi Calm Calm - N/A   Mostly Cloudy
6:00 PM 84.2 °F 90.9 °F 73.4 °F 70% 29.71 in 5.0 mi Calm Calm - N/A   Mostly Cloudy
6:30 PM 77.0 °F - 75.2 °F 94% 29.74 in 1.9 mi North 11.5 mph - N/A Rain Rain
7:00 PM 82 °F - 77 °F 81% 29.73 in 5 mi 4.6 mph - - Rain Light Rain
7:00 PM 78.8 °F - 75.2 °F 89% 29.77 in 4.3 mi SE 9.2 mph - N/A Rain Light Rain
7:30 PM 78.8 °F - 73.4 °F 83% 29.77 in 1.2 mi East 11.5 mph - N/A Rain Rain
8:00 PM 77.0 °F - 75.2 °F 94% 29.80 in 3.1 mi South 5.8 mph - N/A Rain Rain
8:30 PM 77.0 °F - 75.2 °F 94% 29.80 in 4.3 mi ESE 5.8 mph - N/A Thunderstorm Thunderstorm
9:00 PM 77.0 °F - 73.4 °F 89% 29.80 in 4.3 mi ENE 3.5 mph - N/A   Mostly Cloudy
9:30 PM 80.6 °F 84.6 °F 71.6 °F 74% 29.83 in 5.0 mi ENE 9.2 mph - N/A   Mostly Cloudy
10:00 PM 80.6 °F 84.6 °F 71.6 °F 74% 29.86 in 5.0 mi NE 6.9 mph - N/A   Mostly Cloudy
10:30 PM 80.6 °F 84.6 °F 71.6 °F 74% 29.83 in 5.0 mi East 4.6 mph - N/A   Mostly Cloudy
11:00 PM 78.8 °F - 69.8 °F 74% 29.83 in 5.0 mi East 6.9 mph - N/A   Mostly Cloudy
11:30 PM 78.8 °F - 71.6 °F 78% 29.83 in 5.0 mi Calm Calm - N/A   Mostly Cloudy